Weather History for Boone, NC

Change the Weather History Date:

Saturday, January 18, 2014

  Actual Average (KGEV) Record (KGEV)
Temperature  
Mean Temperature 22 °F -  
Max Temperature 32 °F 41 °F 61 °F (1990)
Min Temperature 12 °F 22 °F 0 °F (1977)
Degree Days  
Heating Degree Days 43    
Moisture  
Dew Point 10 °F    
Average Humidity 67    
Maximum Humidity 83    
Minimum Humidity 47    
Precipitation  
Precipitation 0.00 in - - ()
Sea Level Pressure  
Sea Level Pressure 29.85 in    
Wind  
Wind Speed 13 mph (WNW)    
Max Wind Speed 23 mph    
Max Gust Speed 38 mph    
Visibility 7 miles    
Events Snow    
Averages and records for this station are not official NWS values.
T = Trace of Precipitation, MM = Missing Value Source: NWS Daily Summary

Daily Weather History Graph

Daily Weather History Graph

Search for Another Location

Airport:

Trip Planner

Search our weather history database for the weather conditions in past years. The results will help you decide how hot, cold, wet, or windy it might be!

Date:

Astronomy

Jan. 18, 2014 Rise Set
Actual Time 7:35 AM EST 5:38 PM EST
Civil Twilight 7:08 AM EST 6:06 PM EST
Nautical Twilight 6:36 AM EST 6:37 PM EST
Astronomical Twilight 6:05 AM EST 7:08 PM EST
Moon 8:13 PM EST (1/18) 8:40 AM EST (1/18)
Length of Visible Light 10h 58m
Length of Day
10h 02m
Waning Gibbous, 94% of the Moon is Illuminated
Jan 18
Waning Gibbous
Jan 24
Last Quarter
Jan 30
New
Feb 6
First Quarter
Feb 14
Full

Hourly Weather History & Observations

Time (EST) Temp. Windchill Dew Point Humidity Pressure Visibility Wind Dir Wind Speed Gust Speed Precip Events Conditions
12:15 AM 21.2 °F 6.8 °F 15.4 °F 78% 29.82 in 5.0 mi WNW 17.3 mph 24.2 mph N/A Snow Light Snow
12:35 AM 20.3 °F 5.2 °F 14.4 °F 78% 29.81 in 5.0 mi WNW 18.4 mph 26.5 mph N/A Snow Light Snow
12:55 AM 19.9 °F 3.2 °F 12.2 °F 72% 29.80 in 10.0 mi WNW 23.0 mph 27.6 mph N/A   Clear
1:15 AM 19.2 °F 7.7 °F 14.0 °F 80% 29.80 in 2.5 mi NW 10.4 mph 21.9 mph N/A Snow Light Snow
1:35 AM 18.5 °F 3.3 °F 12.2 °F 76% 29.80 in 4.0 mi WNW 17.3 mph 29.9 mph N/A Snow Light Snow
1:55 AM 18.0 °F 0.9 °F 11.5 °F 76% 29.80 in 4.0 mi WNW 21.9 mph 27.6 mph N/A Snow Light Snow
2:15 AM 17.4 °F 2.9 °F 11.8 °F 79% 29.79 in 3.0 mi WNW 15.0 mph 24.2 mph N/A Snow Light Snow
2:35 AM 17.2 °F 4.5 °F 12.9 °F 83% 29.80 in 1.0 mi NW 11.5 mph 23.0 mph N/A Snow Light Snow
2:55 AM 16.9 °F 2.3 °F 12.2 °F 82% 29.80 in 1.8 mi NW 15.0 mph 20.7 mph N/A Snow Light Snow
3:15 AM 15.6 °F -1.8 °F 8.8 °F 74% 29.80 in 3.0 mi NW 20.7 mph 28.8 mph N/A Snow Light Snow
3:35 AM 14.9 °F -0.8 °F 8.1 °F 74% 29.80 in 5.0 mi NW 16.1 mph 31.1 mph N/A Snow Light Snow
3:55 AM 14.5 °F 1.9 °F 8.1 °F 75% 29.80 in 5.0 mi WNW 10.4 mph 23.0 mph N/A Snow Light Snow
4:15 AM 14.5 °F 1.1 °F 9.5 °F 80% 29.80 in 1.2 mi NW 11.5 mph 24.2 mph N/A Snow Light Snow
4:35 AM 14.0 °F -0.8 °F 9.5 °F 82% 29.80 in 1.8 mi WNW 13.8 mph 20.7 mph N/A Snow Light Snow
4:55 AM 14.0 °F 0.5 °F 8.6 °F 79% 29.80 in 2.0 mi NW 11.5 mph 31.1 mph N/A Snow Light Snow
5:15 AM 13.8 °F -3.2 °F 8.8 °F 80% 29.80 in 1.2 mi NW 18.4 mph 25.3 mph N/A Snow Light Snow
5:35 AM 13.1 °F -5.9 °F 8.1 °F 80% 29.81 in 1.2 mi NW 23.0 mph 29.9 mph N/A Snow Light Snow
5:55 AM 13.1 °F -2.0 °F 5.4 °F 71% 29.81 in 5.0 mi NW 13.8 mph 36.8 mph N/A Snow Light Snow
6:15 AM 12.9 °F -4.9 °F 4.6 °F 70% 29.81 in 5.0 mi NW 19.6 mph 33.4 mph N/A   Haze
6:35 AM 12.7 °F -5.5 °F 4.5 °F 70% 29.82 in 7.0 mi WNW 20.7 mph 33.4 mph N/A   Clear
6:55 AM 12.4 °F -5.6 °F 3.9 °F 69% 29.82 in 4.0 mi NW 19.6 mph 38.0 mph N/A Snow Light Snow
7:15 AM 12.2 °F -6.3 °F 3.7 °F 69% 29.82 in 5.0 mi NW 20.7 mph 29.9 mph N/A Snow Light Snow
7:35 AM 12.2 °F -6.3 °F 3.6 °F 68% 29.82 in 7.0 mi NW 20.7 mph 29.9 mph N/A   Clear
7:55 AM 12.2 °F -5.3 °F 3.9 °F 69% 29.82 in 7.0 mi NW 18.4 mph 27.6 mph N/A   Clear
8:15 AM 12.2 °F -7.1 °F 3.9 °F 69% 29.82 in 7.0 mi NW 23.0 mph 33.4 mph N/A   Clear
8:35 AM 12.7 °F -3.6 °F 3.7 °F 67% 29.84 in 10.0 mi NW 16.1 mph 29.9 mph N/A   Scattered Clouds
8:55 AM 13.6 °F -1.3 °F 4.6 °F 67% 29.88 in 10.0 mi NW 13.8 mph 25.3 mph N/A   Scattered Clouds
9:15 AM 13.8 °F 0.2 °F 5.4 °F 69% 29.89 in 10.0 mi NNW 11.5 mph 31.1 mph N/A   Mostly Cloudy
9:35 AM 14.4 °F 0.9 °F 5.9 °F 69% 29.90 in 10.0 mi NW 11.5 mph 27.6 mph N/A   Mostly Cloudy
9:55 AM 14.2 °F 3.1 °F 6.6 °F 72% 29.92 in 5.0 mi NW 8.1 mph 19.6 mph N/A Snow Light Snow
10:15 AM 14.2 °F 2.2 °F 7.3 °F 74% 29.93 in 3.0 mi WNW 9.2 mph 21.9 mph N/A Snow Light Snow
10:35 AM 14.9 °F 9.2 °F 7.9 °F 74% 29.93 in 5.0 mi NNW 3.5 mph 9.2 mph N/A Snow Light Snow
10:55 AM 15.1 °F 2.5 °F 7.7 °F 73% 29.92 in 5.0 mi WNW 10.4 mph 21.9 mph N/A Snow Light Snow
11:15 AM 15.8 °F 8.6 °F 8.6 °F 73% 29.93 in 3.0 mi NW 4.6 mph - N/A Snow Light Snow
11:35 AM 16.2 °F -0.2 °F 9.0 °F 73% 29.93 in 4.0 mi WNW 18.4 mph 24.2 mph N/A Snow Light Snow
11:55 AM 16.7 °F 3.8 °F 9.7 °F 74% 29.93 in 4.0 mi WNW 11.5 mph 17.3 mph N/A Snow Light Snow
12:15 PM 17.1 °F 2.0 °F 9.3 °F 72% 29.92 in 4.0 mi WNW 16.1 mph 24.2 mph N/A Snow Light Snow
12:35 PM 17.4 °F 2.9 °F 10.0 °F 73% 29.91 in 4.0 mi NW 15.0 mph 20.7 mph N/A Snow Light Snow
12:55 PM 17.6 °F 4.3 °F 9.5 °F 71% 29.90 in 7.0 mi NW 12.7 mph 27.6 mph N/A Snow Light Snow
1:15 PM 18.3 °F 6.6 °F 10.6 °F 72% 29.91 in 10.0 mi WNW 10.4 mph 20.7 mph N/A Snow Light Snow
1:35 PM 18.7 °F 4.6 °F 10.8 °F 71% 29.90 in 10.0 mi WNW 15.0 mph 21.9 mph N/A Snow Light Snow
1:55 PM 20.3 °F 5.7 °F 10.4 °F 66% 29.90 in 10.0 mi WNW 17.3 mph 26.5 mph N/A Snow Light Snow
2:15 PM 21.2 °F 7.3 °F 11.1 °F 65% 29.89 in 10.0 mi WNW 16.1 mph 23.0 mph N/A   Clear
2:35 PM 22.1 °F 12.8 °F 11.3 °F 63% 29.88 in 10.0 mi West 8.1 mph 16.1 mph N/A   Clear
2:55 PM 23.2 °F 13.3 °F 11.3 °F 60% 29.87 in 10.0 mi WNW 9.2 mph 16.1 mph N/A   Clear
3:15 PM 24.1 °F 15.2 °F 11.3 °F 58% 29.86 in 10.0 mi WNW 8.1 mph - N/A   Clear
3:35 PM 24.6 °F 13.8 °F 11.7 °F 58% 29.87 in 10.0 mi WNW 11.5 mph - N/A   Clear
3:55 PM 25.2 °F 15.7 °F 11.7 °F 57% 29.87 in 10.0 mi NW 9.2 mph - N/A   Clear
4:15 PM 25.2 °F 15.7 °F 11.5 °F 56% 29.88 in 10.0 mi WNW 9.2 mph - N/A   Clear
4:35 PM 25.9 °F 17.4 °F 11.1 °F 54% 29.88 in 10.0 mi West 8.1 mph - N/A   Clear
4:55 PM 26.2 °F 22.1 °F 10.9 °F 52% 29.87 in 10.0 mi WNW 3.5 mph - N/A   Clear
5:15 PM 26.2 °F - 10.8 °F 52% 29.87 in 10.0 mi Calm Calm - N/A   Clear
5:35 PM 24.1 °F - 11.8 °F 60% 29.87 in 10.0 mi Calm Calm - N/A   Clear
5:55 PM 22.6 °F - 11.5 °F 62% 29.88 in 10.0 mi Calm Calm - N/A   Clear
6:15 PM 22.3 °F - 12.2 °F 65% 29.88 in 10.0 mi Calm Calm - N/A   Clear
6:35 PM 22.1 °F - 12.6 °F 67% 29.88 in 10.0 mi Calm Calm - N/A   Clear
6:55 PM 21.4 °F - 12.6 °F 69% 29.88 in 10.0 mi Calm Calm - N/A   Clear
7:15 PM 21.7 °F - 11.8 °F 66% 29.88 in 10.0 mi Calm Calm - N/A   Clear
7:35 PM 22.6 °F - 12.0 °F 64% 29.88 in 10.0 mi Calm Calm - N/A   Clear
7:55 PM 22.1 °F - 12.4 °F 66% 29.87 in 10.0 mi Calm Calm - N/A   Clear
8:15 PM 21.7 °F - 12.7 °F 68% 29.86 in 10.0 mi Calm Calm - N/A   Clear
8:35 PM 21.9 °F 14.5 °F 12.2 °F 66% 29.84 in 10.0 mi NNE 5.8 mph - N/A   Clear
8:55 PM 22.6 °F - 12.2 °F 64% 29.83 in 10.0 mi Calm Calm - N/A   Clear
9:15 PM 23.5 °F 14.5 °F 12.6 °F 63% 29.87 in 10.0 mi WNW 8.1 mph - N/A   Clear
9:35 PM 26.4 °F 19.8 °F 11.5 °F 53% 29.86 in 10.0 mi West 5.8 mph - N/A   Clear
9:55 PM 27.1 °F 18.9 °F 11.5 °F 52% 29.85 in 10.0 mi WNW 8.1 mph - N/A   Clear
10:15 PM 27.1 °F 18.9 °F 12.2 °F 53% 29.85 in 10.0 mi West 8.1 mph - N/A   Clear
10:35 PM 27.5 °F 20.2 °F 12.4 °F 53% 29.86 in 10.0 mi West 6.9 mph - N/A   Clear
10:55 PM 28.0 °F 20.8 °F 12.4 °F 52% 29.84 in 10.0 mi West 6.9 mph - N/A   Clear
11:15 PM 28.8 °F 22.6 °F 13.1 °F 52% 29.85 in 10.0 mi West 5.8 mph - N/A   Clear
11:35 PM 32.0 °F 25.6 °F 13.8 °F 47% 29.85 in 10.0 mi WNW 6.9 mph 16.1 mph N/A   Clear
11:55 PM 32.0 °F 28.7 °F 13.8 °F 47% 29.83 in 10.0 mi WNW 3.5 mph 18.4 mph N/A   Clear